When you browse on this site, cookies collect data to enhance your experience and personalize the content and advertising you see.
Visit our Privacy Policy to learn more. By continuing to use the site, you agree to this use of cookies and data.
  • In Latvia
  • List of Countries
  • For 7 days
  • Water Temperature
  • Weather Map
  • Weather Widgets
  • user-avatar
    Login

    Hourly Weather Krapkowice

    Today, 30 May, Saturday

    Time Temperature Precipitation Wind Pressure Humidity
    00:00 +7°C° 0 mm 2 mps 751 mmHg 88%
    01:00 +6°C° 0 mm 2 mps 751 mmHg 91%
    02:00 +4°C° 0 mm 3 mps 751 mmHg 92%
    03:00 +4°C° 0 mm 3 mps 751 mmHg 94%
    04:00 +3°C° 0 mm 3 mps 750 mmHg 95%
    05:00 +4°C° 0 mm 3 mps 750 mmHg 91%
    06:00 +5°C° 0 mm 4 mps 750 mmHg 87%
    07:00 +6°C° 0 mm 4 mps 750 mmHg 83%
    08:00 +7°C° 0.2 mm 4 mps 750 mmHg 82%
    09:00 +8°C° 0.2 mm 4 mps 750 mmHg 81%
    10:00 +10°C° 0.2 mm 4 mps 749 mmHg 81%
    11:00 +11°C° 0.3 mm 4 mps 749 mmHg 77%
    12:00 +13°C° 0.3 mm 4 mps 749 mmHg 74%
    13:00 +14°C° 0.3 mm 5 mps 749 mmHg 70%
    14:00 +14°C° 0.5 mm 5 mps 749 mmHg 72%
    15:00 +14°C° 0.5 mm 5 mps 749 mmHg 74%
    16:00 +14°C° 0.5 mm 5 mps 748 mmHg 76%
    17:00 +13°C° 0.1 mm 4 mps 748 mmHg 79%
    18:00 +12°C° 0.1 mm 4 mps 748 mmHg 83%
    19:00 +11°C° 0.1 mm 3 mps 748 mmHg 86%
    20:00 +11°C° 0 mm 3 mps 748 mmHg 87%
    21:00 +10°C° 0 mm 3 mps 748 mmHg 89%
    22:00 +9°C° 0 mm 3 mps 748 mmHg 90%
    23:00 +9°C° 0 mm 3 mps 748 mmHg 89%

    Tomorrow, 31 May, Sunday

    Time Temperature Precipitation Wind Pressure Humidity
    00:00 +8°C° 0 mm 4 mps 748 mmHg 89%
    01:00 +7°C° 0 mm 4 mps 748 mmHg 89%
    02:00 +7°C° 0.4 mm 4 mps 747 mmHg 90%
    03:00 +7°C° 0.4 mm 5 mps 747 mmHg 92%
    04:00 +7°C° 0.4 mm 5 mps 747 mmHg 94%
    05:00 +7°C° 0.4 mm 6 mps 746 mmHg 94%
    06:00 +7°C° 0.4 mm 6 mps 746 mmHg 94%
    07:00 +7°C° 0.4 mm 6 mps 746 mmHg 94%
    08:00 +8°C° 0.6 mm 6 mps 746 mmHg 94%
    09:00 +8°C° 0.6 mm 6 mps 746 mmHg 94%
    10:00 +8°C° 0.6 mm 6 mps 746 mmHg 94%
    11:00 +9°C° 0.5 mm 5 mps 746 mmHg 93%
    12:00 +11°C° 0.5 mm 4 mps 746 mmHg 93%
    13:00 +12°C° 0.5 mm 3 mps 746 mmHg 92%
    14:00 +12°C° 0.3 mm 3 mps 746 mmHg 92%
    15:00 +12°C° 0.3 mm 3 mps 746 mmHg 93%
    16:00 +12°C° 0.3 mm 3 mps 747 mmHg 93%
    17:00 +12°C° 0.1 mm 3 mps 747 mmHg 93%
    18:00 +12°C° 0.1 mm 3 mps 747 mmHg 92%
    19:00 +13°C° 0.1 mm 3 mps 747 mmHg 92%
    20:00 +12°C° 0.1 mm 3 mps 748 mmHg 92%
    21:00 +12°C° 0.1 mm 3 mps 748 mmHg 93%
    22:00 +11°C° 0.1 mm 3 mps 748 mmHg 93%
    23:00 +11°C° 0.1 mm 3 mps 749 mmHg 93%

    Day after tomorrow, 1 June, Monday

    Time Temperature Precipitation Wind Pressure Humidity
    00:00 +11°C° 0.1 mm 3 mps 749 mmHg 94%
    01:00 +10°C° 0.1 mm 3 mps 749 mmHg 94%
    02:00 +10°C° 0 mm 3 mps 749 mmHg 94%
    03:00 +9°C° 0 mm 3 mps 749 mmHg 94%
    04:00 +9°C° 0 mm 3 mps 749 mmHg 94%
    05:00 +10°C° 0 mm 3 mps 750 mmHg 92%
    06:00 +10°C° 0 mm 3 mps 750 mmHg 89%
    07:00 +11°C° 0 mm 3 mps 750 mmHg 87%
    08:00 +13°C° 0 mm 4 mps 750 mmHg 78%
    09:00 +14°C° 0 mm 4 mps 750 mmHg 69%
    10:00 +16°C° 0 mm 5 mps 750 mmHg 60%
    11:00 +16°C° 0 mm 5 mps 750 mmHg 57%
    12:00 +17°C° 0 mm 5 mps 750 mmHg 54%
    13:00 +17°C° 0 mm 6 mps 750 mmHg 52%
    14:00 +17°C° 0 mm 5 mps 750 mmHg 53%
    15:00 +17°C° 0 mm 5 mps 750 mmHg 55%
    16:00 +17°C° 0 mm 5 mps 750 mmHg 57%
    17:00 +17°C° 0 mm 4 mps 750 mmHg 61%
    18:00 +14°C° 0 mm 4 mps 750 mmHg 65%
    19:00 +13°C° 0 mm 3 mps 750 mmHg 68%
    20:00 +12°C° 0 mm 3 mps 750 mmHg 72%
    21:00 +12°C° 0 mm 2 mps 750 mmHg 75%
    22:00 +9°C° 0 mm 2 mps 751 mmHg 78%
    23:00 +9°C° 0 mm 2 mps 750 mmHg 83%

    2 June, Tuesday

    Time Temperature Precipitation Wind Pressure Humidity
    00:00 +8°C° 0 mm 2 mps 750 mmHg 87%
    01:00 +7°C° 0 mm 2 mps 750 mmHg 91%
    02:00 +8°C° 0 mm 3 mps 749 mmHg 88%
    03:00 +7°C° 0 mm 4 mps 749 mmHg 86%
    04:00 +8°C° 0 mm 4 mps 749 mmHg 84%
    05:00 +8°C° 0.3 mm 4 mps 749 mmHg 87%
    06:00 +8°C° 0.3 mm 5 mps 748 mmHg 90%
    07:00 +8°C° 0.3 mm 5 mps 748 mmHg 94%
    08:00 +9°C° 0.2 mm 5 mps 748 mmHg 89%
    09:00 +11°C° 0.2 mm 4 mps 748 mmHg 85%
    10:00 +12°C° 0.2 mm 4 mps 748 mmHg 81%
    11:00 +14°C° 0.1 mm 5 mps 747 mmHg 72%
    12:00 +15°C° 0.1 mm 5 mps 747 mmHg 63%
    13:00 +17°C° 0.1 mm 5 mps 747 mmHg 54%
    14:00 +17°C° 0 mm 5 mps 746 mmHg 53%
    15:00 +17°C° 0 mm 5 mps 746 mmHg 53%
    16:00 +17°C° 0 mm 5 mps 745 mmHg 53%
    17:00 +15°C° 0 mm 4 mps 745 mmHg 58%
    18:00 +14°C° 0 mm 3 mps 745 mmHg 64%
    19:00 +14°C° 0 mm 2 mps 745 mmHg 70%
    20:00 +13°C° 0 mm 2 mps 745 mmHg 74%
    21:00 +10°C° 0 mm 2 mps 745 mmHg 78%
    22:00 +9°C° 0 mm 2 mps 745 mmHg 82%
    23:00 +9°C° 0 mm 2 mps 745 mmHg 83%

    3 June, Wednesday

    Time Temperature Precipitation Wind Pressure Humidity
    00:00 +10°C° 0 mm 1 mps 745 mmHg 84%
    01:00 +9°C° 0 mm 1 mps 744 mmHg 85%
    02:00 +8°C° 0 mm 2 mps 744 mmHg 85%
    03:00 +8°C° 0 mm 2 mps 744 mmHg 85%
    04:00 +8°C° 0 mm 2 mps 744 mmHg 85%
    05:00 +10°C° 0 mm 2 mps 744 mmHg 83%
    06:00 +12°C° 0 mm 2 mps 743 mmHg 80%
    07:00 +12°C° 0 mm 3 mps 743 mmHg 78%
    08:00 +13°C° 0.4 mm 3 mps 743 mmHg 76%
    09:00 +14°C° 0.4 mm 3 mps 743 mmHg 75%
    10:00 +16°C° 0.4 mm 3 mps 743 mmHg 73%
    11:00 +16°C° 0.2 mm 2 mps 743 mmHg 69%
    12:00 +17°C° 0.2 mm 2 mps 743 mmHg 66%
    13:00 +18°C° 0.2 mm 2 mps 742 mmHg 62%
    14:00 +18°C° 0.2 mm 2 mps 742 mmHg 61%
    15:00 +18°C° 0.2 mm 2 mps 742 mmHg 59%
    16:00 +19°C° 0.2 mm 2 mps 742 mmHg 58%
    17:00 +17°C° 0.3 mm 2 mps 742 mmHg 65%
    18:00 +16°C° 0.3 mm 2 mps 742 mmHg 72%
    19:00 +15°C° 0.3 mm 2 mps 741 mmHg 79%
    20:00 +14°C° 0 mm 1 mps 742 mmHg 81%
    21:00 +12°C° 0 mm 1 mps 742 mmHg 83%
    22:00 +11°C° 0 mm 1 mps 742 mmHg 86%
    23:00 +11°C° 0 mm 1 mps 742 mmHg 86%

    4 June, Thursday

    Time Temperature Precipitation Wind Pressure Humidity
    00:00 +10°C° 0 mm 1 mps 742 mmHg 87%
    01:00 +10°C° 0 mm 1 mps 742 mmHg 87%
    02:00 +10°C° 0 mm 1 mps 741 mmHg 88%
    03:00 +9°C° 0 mm 1 mps 741 mmHg 88%
    04:00 +9°C° 0 mm 1 mps 741 mmHg 89%
    05:00 +11°C° 0 mm 1 mps 741 mmHg 84%
    06:00 +13°C° 0 mm 1 mps 741 mmHg 79%
    07:00 +14°C° 0 mm 0 mps 741 mmHg 74%
    08:00 +16°C° 0 mm 1 mps 741 mmHg 66%
    09:00 +19°C° 0 mm 1 mps 741 mmHg 58%
    10:00 +20°C° 0 mm 1 mps 741 mmHg 51%
    11:00 +21°C° 0 mm 1 mps 741 mmHg 49%
    12:00 +21°C° 0 mm 1 mps 740 mmHg 47%
    13:00 +22°C° 0 mm 1 mps 740 mmHg 45%
    14:00 +22°C° 0 mm 1 mps 740 mmHg 45%
    15:00 +20°C° 0 mm 0 mps 740 mmHg 45%
    16:00 +20°C° 0 mm 0 mps 740 mmHg 45%
    17:00 +21°C° 0 mm 1 mps 740 mmHg 51%
    18:00 +20°C° 0 mm 1 mps 739 mmHg 57%
    19:00 +18°C° 0 mm 1 mps 739 mmHg 63%
    20:00 +16°C° 0 mm 1 mps 739 mmHg 65%
    21:00 +15°C° 0 mm 2 mps 740 mmHg 66%
    22:00 +13°C° 0 mm 2 mps 740 mmHg 68%
    23:00 +13°C° 0 mm 2 mps 740 mmHg 71%
    Show more